Wenatchee, WA
on Wednesday, February 6, 2013

Wednesday
Previous Day Next Day
Daily Summary
 ActualAverageRecord
Temperature
Mean Temperature °F 33°F  
Max Temperature 41°F 39°F 56°F (1967)
Min Temperature 33°F 27°F 0°F (2014)
Degree Days
Heating Degree Days 28 32  
Month to date heating degree days 201 195  
Since 1 July heating degree days 4144 3815  
Cooling Degree Days 0 0  
Month to date cooling degree days 0 0  
Year to date cooling degree days 0 0  
Moisture
Dew Point 31°F   
Average Humidity 81    
Maximum Humidity 92    
Minimum Humidity 68    
Precipitation
Precipitation 0.00 in 0.03 in 0.41 in (1996)
Month to date precipitation T 0.18  
Year to date precipitation 1.46 1.24  
Snow
Snow 0.00 in 0.20 in in ()
Month to date snowfall 0.0 1.2  
Snow Depth 3.00 in   
Wind
Wind Speed 2 mph   
Max Wind Speed 7 mph   
Max Gust Speed mph   
Visibility 9 miles   
Events     

Key: T is trace of precipitation, MM is missing value
Source: NWS Daily Summary
Time(PST)TemperatureDew PointHumidity Pressure Visibility Wind DirectionWind SpeedGust SpeedPrecipitationEvents Conditions
12:55 AM 30.9°F 28.0°F 89% 29.93 in 6.0 miles East 4.6 mph - N/A   Overcast
1:55 AM 32.0°F 28.9°F 88% 29.95 in 6.0 miles Calm Calm - N/A   Mostly Cloudy
2:55 AM 32.0°F 28.9°F 88% 29.95 in 6.0 miles ENE 3.5 mph - N/A   Partly Cloudy
3:55 AM 28.9°F 27.0°F 92% 29.96 in 5.0 miles East 4.6 mph - N/A   Clear
4:55 AM 32.0°F 28.9°F 88% 29.98 in 8.0 miles NE 3.5 mph - N/A   Clear
5:55 AM 32.0°F 28.0°F 85% 29.99 in 9.0 miles Calm Calm - N/A   Clear
6:55 AM 30.9°F 28.0°F 89% 30.00 in 10.0 miles South 3.5 mph - N/A   Clear
7:55 AM 33.1°F 28.9°F 85% 30.01 in 9.0 miles NE 3.5 mph - N/A   Clear
8:55 AM 33.1°F 30.0°F 89% 30.03 in 9.0 miles Calm Calm - N/A   Partly Cloudy
9:55 AM 37.0°F 30.0°F 76% 30.04 in 10.0 miles East 3.5 mph - N/A   Partly Cloudy
10:55 AM 37.9°F 30.9°F 76% 30.04 in 10.0 miles East 6.9 mph - N/A   Partly Cloudy
11:55 AM 41.0°F 33.1°F 73% 30.03 in 10.0 miles Calm Calm - N/A   Scattered Clouds
12:55 PM 41.0°F 32.0°F 70% 30.03 in 10.0 miles Calm Calm - N/A   Mostly Cloudy
1:55 PM 43.0°F 33.1°F 68% 30.02 in 10.0 miles Calm Calm - N/A   Mostly Cloudy
2:55 PM 42.1°F 33.1°F 70% 30.01 in 10.0 miles SW 4.6 mph - N/A   Overcast
3:55 PM 42.1°F 33.1°F 70% 30.00 in 10.0 miles Calm Calm - N/A   Mostly Cloudy
4:55 PM 41.0°F 32.0°F 70% 30.00 in 10.0 miles Calm Calm - N/A   Overcast
5:55 PM 39.0°F 32.0°F 76% 29.99 in 10.0 miles Calm Calm - N/A   Overcast
6:55 PM 37.9°F 32.0°F 79% 29.98 in 10.0 miles North 4.6 mph - N/A   Overcast
7:55 PM 37.0°F 32.0°F 82% 29.97 in 10.0 miles Variable 3.5 mph - N/A   Overcast
8:55 PM 35.1°F 30.9°F 85% 29.97 in 10.0 miles Calm Calm - N/A   Mostly Cloudy
9:55 PM 35.1°F 30.9°F 85% 29.96 in 10.0 miles Calm Calm - N/A   Partly Cloudy
10:55 PM 35.1°F 30.9°F 85% 29.96 in 10.0 miles Calm Calm - N/A   Overcast
11:55 PM 35.1°F 30.9°F 85% 29.94 in 10.0 miles Calm Calm - N/A   Clear
Moon Phase
Feb. 06 Feb. 10 Feb. 17 Feb. 25 Mar. 04
Sunrise:07:19 AM (PST) Moon Rise:04:16 AM (PST)2/6
Sunset:05:11 PM (PST) Moon Set:01:26 PM (PST)2/6

Copyright © 2014 The Weather Underground, Inc.